TimeMDT,TemperatureF,Dew PointF,Humidity,Sea Level PressureIn,VisibilityMPH,Wind Direction,Wind SpeedMPH,Gust SpeedMPH,PrecipitationIn,Events,Conditions,WindDirDegrees,DateUTC
12:52 AM,37.0,27.0,67,30.10,10.0,SSW,6.9,-,N/A,,Clear,210,2013-04-03 06:52:00
1:52 AM,35.1,28.0,76,30.10,10.0,SSW,6.9,-,N/A,,Clear,200,2013-04-03 07:52:00
2:52 AM,34.0,27.0,75,30.09,10.0,SSW,6.9,-,N/A,,Clear,200,2013-04-03 08:52:00
3:52 AM,32.0,27.0,82,30.09,10.0,South,8.1,-,N/A,,Clear,190,2013-04-03 09:52:00
4:52 AM,35.1,28.0,76,30.08,10.0,SW,5.8,-,N/A,,Clear,230,2013-04-03 10:52:00
5:52 AM,35.1,28.0,76,30.09,10.0,South,12.7,-,N/A,,Clear,190,2013-04-03 11:52:00
6:52 AM,35.1,28.9,78,30.10,10.0,SW,12.7,-,N/A,,Clear,220,2013-04-03 12:52:00
7:52 AM,39.0,30.0,70,30.12,10.0,South,18.4,23.0,N/A,,Clear,190,2013-04-03 13:52:00
8:52 AM,45.0,30.9,58,30.11,10.0,SSW,16.1,-,N/A,,Clear,200,2013-04-03 14:52:00
9:52 AM,46.9,32.0,56,30.07,10.0,South,17.3,-,N/A,,Clear,190,2013-04-03 15:52:00
10:52 AM,54.0,35.1,49,30.05,10.0,South,21.9,26.5,N/A,,Clear,190,2013-04-03 16:52:00
11:52 AM,60.1,34.0,38,30.01,10.0,SSW,15.0,-,N/A,,Clear,200,2013-04-03 17:52:00
12:52 PM,64.0,28.0,26,29.99,10.0,SW,12.7,21.9,N/A,,Clear,230,2013-04-03 18:52:00
1:52 PM,66.0,26.1,22,29.97,10.0,WSW,17.3,20.7,N/A,,Clear,240,2013-04-03 19:52:00
2:52 PM,70.0,25.0,18,29.94,10.0,SW,15.0,19.6,N/A,,Clear,230,2013-04-03 20:52:00
3:52 PM,70.0,23.0,17,29.93,10.0,SSW,5.8,-,N/A,,Clear,210,2013-04-03 21:52:00
4:52 PM,70.0,21.0,16,29.91,10.0,South,8.1,-,N/A,,Clear,180,2013-04-03 22:52:00
5:52 PM,68.0,21.9,17,29.91,10.0,Calm,Calm,-,N/A,,Overcast,0,2013-04-03 23:52:00
6:52 PM,64.9,24.1,21,29.96,6.0,North,25.3,38.0,N/A,,Haze,360,2013-04-04 00:52:00
7:52 PM,59.0,32.0,36,29.99,10.0,NNE,15.0,24.2,N/A,,Partly Cloudy,20,2013-04-04 01:52:00
8:52 PM,55.0,32.0,42,30.01,10.0,SE,6.9,-,N/A,,Overcast,130,2013-04-04 02:52:00
9:52 PM,54.0,33.1,45,30.04,10.0,SSE,3.5,-,N/A,,Overcast,160,2013-04-04 03:52:00
10:30 PM,53.6,35.6,51,30.09,10.0,North,16.1,-,N/A,,Mostly Cloudy,10,2013-04-04 04:30:00
10:52 PM,51.1,35.1,54,30.09,10.0,NNE,13.8,-,N/A,,Scattered Clouds,20,2013-04-04 04:52:00
11:52 PM,46.9,32.0,56,30.10,10.0,NNE,15.0,-,N/A,,Overcast,20,2013-04-04 05:52:00